Flag for U.S.A. Weather past 2 weeks in Plano, Texas, U.S.A.

Now
25 °F

Clear.


Feels Like: 16 °F
Forecast: 22 / 32 °F
Wind: 8 mph from Northeast

Location: McKinney Municipal Airport

Current Time: Feb 27, 2015 at 6:07:32 AM

Latest Report: Feb 27, 2015 at 4:53 AM


Visibility: 10 mi

Pressure: 30.48 "Hg

Humidity: 55%

Dew point: 11 °F

Location of PlanoLocation

Historic Weather in Plano — Graph

°F

Plano temperature yesterday

Maximum temperature yesterday: 38 °F (at 1:53 PM)
Minimum temperature yesterday: 29 °F (at 11:53 PM)
Average temperature yesterday: 33 °F

Past Weeks' High & Low Weather Summary

 TemperatureHumidityPressure
High78 °F (Feb 14, 3:53 PM)100% (Feb 15, 10:53 PM)30.65 "Hg (Feb 15, 10:53 PM)
Low24 °F (Feb 24, 12:53 AM)23% (Feb 14, 3:53 PM)29.67 "Hg (Feb 21, 2:53 AM)
Average42 °F71%30.21 "Hg
* Reported Feb 12 4:53 AM — Feb 27 4:53 AM, Plano, Weather by CustomWeather, © 2015

Note: Actual official high and low records may vary slightly from our data, if they occured in-between our weather recording intervals... More about our weather records

Advertising

Plano weather history for previous 24 hours

 ConditionsComfort  
Time TempWeatherWind HumidityBarometerVisibility
4:53 AM
Fri, Feb 27
25 °FClear.8 mph55%30.48 "Hg10 mi
3:53 AM26 °FClear.9 mph52%30.47 "Hg10 mi
2:53 AM27 °FOvercast.13 mph51%30.48 "Hg10 mi
1:53 AM28 °FOvercast.14 mph51%30.49 "Hg10 mi
12:53 AM29 °FMostly cloudy.16 mph47%30.49 "Hg10 mi
11:53 PM
Thu, Feb 26
29 °FOvercast.12 mph51%30.48 "Hg10 mi
10:53 PM30 °FOvercast.15 mph51%30.48 "Hg10 mi
9:53 PM31 °FOvercast.13 mph52%30.48 "Hg10 mi
8:53 PM32 °FOvercast.12 mph52%30.47 "Hg10 mi
7:53 PM34 °FOvercast.13 mph50%30.42 "Hg10 mi
6:53 PM34 °FOvercast.13 mph50%30.40 "Hg10 mi
5:53 PM35 °FOvercast.14 mph52%30.38 "Hg10 mi
4:53 PM35 °FOvercast.13 mph52%30.37 "Hg10 mi
3:53 PM35 °FOvercast.17 mph52%30.35 "Hg10 mi
2:53 PM36 °FOvercast.17 mph52%30.34 "Hg10 mi
1:53 PM38 °FOvercast.16 mph51%30.34 "Hg10 mi
12:53 PM37 °FMostly cloudy.17 mph57%30.35 "Hg10 mi
11:53 AM36 °FPartly sunny.16 mph59%30.34 "Hg10 mi
10:53 AM35 °FScattered clouds.18 mph64%30.34 "Hg10 mi
9:53 AM32 °FOvercast.21 mph66%30.33 "Hg10 mi
8:53 AM31 °FMostly cloudy.20 mph69%30.30 "Hg10 mi
7:53 AM32 °FOvercast.14 mph73%30.23 "Hg10 mi
6:53 AM33 °FMostly cloudy.20 mph78%30.16 "Hg10 mi
Weather by CustomWeather, © 2015

See weather overviewHow to use our weather pages